User: anonymous   Login
Location: L�tisburg
(47.3947°N, 9.0820°E)
Time: 02:49:26
(UTC+00:00)
Language:

Okean 3 - Orbit

View from above orbital plane
View from above orbital plane
View from above satellite
View from above satellite

Ground track
Ground track

The orbit data is extracted from the following two-line orbital elements,

1 21397U 91039A   21136.74273662  .00000295  00000-0  25737-4 0  9998
2 21397  82.5240 219.8482 0019038 131.1956 229.0909 14.93092361601990
Epoch (UTC): 16 May 2021 17:49:32
Eccentricity: 0.0019038
inclination: 82.5240°
perigee height: 575 km
apogee height: 601 km
right ascension of ascending node: 219.8482°
argument of perigee: 131.1956°
revolutions per day: 14.93092361
mean anomaly at epoch: 229.0909°
orbit number at epoch: 60199

The dashed part of the orbit path shows where the satellite is in the earth's shadow,  

DLR